DW3039 Karjalohja FI current weather conditions

sailwx.info

Wind from 311 at 2 knots gusting 6

Air temperature -1.1° C
Dewpoint -5.1° C

Last reported at 2017-Mar-29 21:54 UTC.
Time now 2017-Mar-29 22:59 UTC

Location: N 60°16' E 023°41'.
View on Google Maps.

See reports from other nearby stations

  
Tides and Currents Weather Stations Pressure Air Temp Water Temp Dewpoint Dewpoint Depression Visibility Wind Speed Wind Dir Waves Ship Positions
date/time (UTC)wind fromknots sea level pressurealtimeterstation pressurevisibilityair tempwater tempwave heightnotes
2017-Mar-29 21:54 311 2 gusting 6 -1.1
2017-Mar-29 21:44 266 -1.1
2017-Mar-29 21:34 317 2 gusting 6 -1.1
2017-Mar-29 21:24 325 1 gusting 5 -1.1
2017-Mar-29 21:14 268 -1.1
2017-Mar-29 21:04 326 2 gusting 7 -1.1
2017-Mar-29 20:54 317 3 gusting 8 -1.1
2017-Mar-29 20:44 305 3 gusting 8 -0.6
2017-Mar-29 20:34 326 3 gusting 8 -0.6
2017-Mar-29 20:24 301 6 gusting 10 -0.6
2017-Mar-29 20:13 321 4 gusting 11 -0.6
2017-Mar-29 20:03 316 1 gusting 7 -0.6
2017-Mar-29 19:53 309 2 gusting 6 -0.6
2017-Mar-29 19:43 307 1 gusting 7 -0.6
2017-Mar-29 19:33 305 4 gusting 7 -0.0
2017-Mar-29 19:23 315 2 gusting 7 -0.0
2017-Mar-29 19:13 318 4 gusting 6 -0.0
2017-Mar-29 19:03 294 0 gusting 7 -0.0
2017-Mar-29 18:53 285 -0.0
2017-Mar-29 18:43 307 0 gusting 3 0.6
2017-Mar-29 18:33 303 0 gusting 6 0.6
2017-Mar-29 18:23 304 0 gusting 6 0.6
2017-Mar-29 18:13 309 3 gusting 6 0.6
2017-Mar-29 18:03 305 0 gusting 6 1.1
2017-Mar-29 17:53 307 1 gusting 6 1.1
2017-Mar-29 17:32 329 1.7
2017-Mar-29 17:22 303 0 gusting 5 1.7
2017-Mar-29 17:12 301 0 gusting 7 1.7
2017-Mar-29 17:02 245 2 gusting 8 1.7
2017-Mar-29 16:05 242 2 gusting 8 2.2
2017-Mar-29 15:55 295 4 gusting 9 2.2
2017-Mar-29 15:45 317 3 gusting 6 2.2
2017-Mar-29 15:09 300 4 gusting 13 3.3
2017-Mar-29 14:46 313 6 gusting 10 2.8
2017-Mar-29 14:36 291 5 gusting 8 2.8
2017-Mar-29 14:26 339 6 gusting 10 2.8
2017-Mar-29 14:16 313 2 gusting 11 2.8
2017-Mar-29 14:06 304 6 gusting 9 2.8
2017-Mar-29 13:56 269 0 gusting 11 2.8
2017-Mar-29 13:46 323 6 gusting 12 2.8
2017-Mar-29 13:36 281 1 gusting 9 2.8
2017-Mar-29 13:26 327 6 gusting 12 2.8
2017-Mar-29 13:16 336 6 gusting 8 2.8
2017-Mar-29 12:55 329 6 gusting 9 2.2
2017-Mar-29 12:45 289 0 gusting 7 2.8
2017-Mar-29 12:35 245 3 gusting 10 2.2
2017-Mar-29 12:25 328 6 gusting 11 2.2
2017-Mar-29 12:15 318 6 gusting 11 2.8
2017-Mar-29 11:53 328 6 gusting 12 2.2
2017-Mar-29 11:43 308 1 gusting 8 2.2
2017-Mar-29 10:32 235 6 gusting 13 2.2
2017-Mar-29 10:22 238 4 gusting 11 1.7
2017-Mar-29 10:12 323 9 gusting 13 1.7
2017-Mar-29 10:02 235 6 gusting 14 1.7
2017-Mar-29 09:52 299 3 gusting 12 1.7
2017-Mar-29 09:41 333 4 gusting 13 1.7
2017-Mar-29 09:31 263 2 gusting 14 1.7
2017-Mar-29 09:21 285 4 gusting 11 1.7
2017-Mar-29 09:11 316 5 gusting 9 1.7
2017-Mar-29 09:01 227 6 gusting 10 1.7
2017-Mar-29 08:51 232 5 gusting 13 1.1
2017-Mar-29 08:41 276 2 gusting 11 1.1
2017-Mar-29 08:31 314 3 gusting 11 1.1
2017-Mar-29 08:21 238 6 gusting 12 0.6
2017-Mar-29 08:11 248 3 gusting 7 0.6
2017-Mar-29 08:01 310 1 gusting 10 0.6
2017-Mar-29 07:51 296 1 gusting 7 -0.0
2017-Mar-29 07:41 245 1 gusting 8 -0.0
2017-Mar-29 07:31 248 1 gusting 5 -0.0
2017-Mar-29 07:21 232 2 gusting 6 -0.6
2017-Mar-29 07:11 232 1 gusting 4 -0.6
2017-Mar-29 07:01 251 -0.6
2017-Mar-29 06:51 207 -1.1
2017-Mar-29 06:05 231 -1.7
2017-Mar-29 05:55 232 -1.7
2017-Mar-29 05:45 232 -1.7
2017-Mar-29 05:35 232 -2.2
2017-Mar-29 05:25 232 -2.2
2017-Mar-29 05:15 232 -2.2
2017-Mar-29 05:05 232 -2.2
2017-Mar-29 04:55 232 -2.8
2017-Mar-29 04:45 232 -2.8
2017-Mar-29 04:35 232 -2.8
2017-Mar-29 04:25 232 -2.8
2017-Mar-29 04:15 232 -2.8
2017-Mar-29 04:05 232 -2.8
2017-Mar-29 03:55 232 -2.2
2017-Mar-29 03:45 232 -2.2
2017-Mar-29 03:35 232 -2.2
2017-Mar-29 03:25 206 -2.2
2017-Mar-29 03:15 238 -2.2
2017-Mar-29 03:04 224 -2.8
2017-Mar-29 02:54 203 -2.2
2017-Mar-29 02:44 203 -2.2
2017-Mar-29 02:34 203 -2.2
2017-Mar-29 02:24 203 -2.2
2017-Mar-29 02:14 203 -2.2
2017-Mar-29 02:04 203 -2.2
2017-Mar-29 01:54 203 -2.2
2017-Mar-29 01:44 203 -2.2
2017-Mar-29 01:34 203 -1.7
2017-Mar-29 01:24 214 -1.7
2017-Mar-29 01:14 216 -1.7
2017-Mar-29 01:04 217 -1.7
2017-Mar-29 00:54 230 2 gusting 4 -1.7
2017-Mar-29 00:44 224 -1.7
2017-Mar-29 00:34 224 -1.7
2017-Mar-29 00:24 224 -1.7
2017-Mar-29 00:14 224 -1.7
2017-Mar-29 00:04 224 -1.7
2017-Mar-28 23:54 225 -1.1
2017-Mar-28 23:44 241 0 gusting 2 -1.1
2017-Mar-28 23:34 241 0 gusting 5 -1.1
2017-Mar-28 23:24 247 -1.1
2017-Mar-28 23:14 241 0 gusting 4 -1.1
2017-Mar-28 23:04 228 -1.1
2017-Mar-28 22:54 237 -1.1
2017-Mar-28 22:44 239 0 gusting 3 -1.1
2017-Mar-28 22:34 227 -1.1
2017-Mar-28 22:24 232 -0.6
2017-Mar-28 22:14 218 -0.6
2017-Mar-28 22:04 218 -0.6
2017-Mar-28 21:54 239 0 gusting 4 -0.6
2017-Mar-28 21:44 247 -0.6
2017-Mar-28 21:34 231 1 gusting 4 -0.6
2017-Mar-28 21:24 252 0 gusting 4 -0.6
2017-Mar-28 21:14 228 0 gusting 6 -0.6
2017-Mar-28 21:04 243 0 gusting 6 -0.6
2017-Mar-28 20:53 234 1 gusting 6 -0.6
2017-Mar-28 20:43 238 0 gusting 6 -0.6
2017-Mar-28 20:33 231 2 gusting 4 -0.6
2017-Mar-28 20:23 234 0 gusting 5 -0.0
2017-Mar-28 20:13 239 0 gusting 3 -0.0
2017-Mar-28 20:03 239 -0.0
2017-Mar-28 19:53 251 -0.0
2017-Mar-28 19:43 235 -0.0
2017-Mar-28 19:33 241 1 gusting 6 -0.0
2017-Mar-28 19:23 263 0 gusting 6 -0.0
2017-Mar-28 19:13 254 2 gusting 8 0.6
2017-Mar-28 19:03 241 0.6
2017-Mar-28 18:53 243 1 gusting 7 0.6
2017-Mar-28 18:43 239 4 gusting 9 0.6
2017-Mar-28 18:33 248 3 gusting 6 0.6
2017-Mar-28 18:23 252 3 gusting 8 1.1
2017-Mar-28 18:13 261 0 gusting 7 1.1
2017-Mar-28 18:03 251 0 gusting 9 1.1
2017-Mar-28 17:53 253 1 gusting 9 1.1
2017-Mar-28 17:43 292 1 gusting 6 1.1
2017-Mar-28 15:54 238 3 gusting 17 2.8
2017-Mar-28 15:43 290 4 gusting 13 2.8
2017-Mar-28 15:33 243 6 gusting 13 2.8
2017-Mar-28 15:23 297 6 gusting 15 2.8
2017-Mar-28 15:13 322 6 gusting 12 2.8
2017-Mar-28 15:03 332 5 gusting 11 2.8
2017-Mar-28 14:52 286 5 gusting 9 2.8
2017-Mar-28 14:42 321 6 gusting 9 2.8
2017-Mar-28 14:32 341 2 gusting 13 2.8
2017-Mar-28 14:22 307 7 gusting 15 3.3
2017-Mar-28 14:12 286 2 gusting 8 3.3
2017-Mar-28 14:01 256 5 gusting 11 3.3
2017-Mar-28 13:51 321 5 gusting 14 3.3
2017-Mar-28 13:41 239 6 gusting 14 3.3
2017-Mar-28 13:31 302 3 gusting 13 3.3
2017-Mar-28 13:21 291 4 gusting 13 3.3
2017-Mar-28 13:11 291 7 gusting 12 3.3
2017-Mar-28 13:01 263 7 gusting 13 3.3
2017-Mar-28 12:51 278 3 gusting 19 3.3
2017-Mar-28 12:41 261 6 gusting 14 3.3
2017-Mar-28 12:31 303 7 gusting 16 3.9
2017-Mar-28 12:21 243 8 gusting 17 3.9
2017-Mar-28 12:11 253 6 gusting 13 3.3
2017-Mar-28 12:01 245 6 gusting 14 3.3
2017-Mar-28 11:40 260 6 gusting 16 3.3
2017-Mar-28 11:30 272 6 gusting 22 3.3
2017-Mar-28 11:19 315 8 gusting 18 2.8
2017-Mar-28 11:09 254 5 gusting 23 3.3
2017-Mar-28 10:59 269 6 gusting 14 3.3
2017-Mar-28 10:49 292 6 gusting 21 2.8
2017-Mar-28 10:39 309 10 gusting 19 2.8
2017-Mar-28 10:16 264 6 gusting 13 2.8
2017-Mar-28 10:05 292 6 gusting 13 2.8
2017-Mar-28 09:55 264 8 gusting 14 2.8
2017-Mar-28 09:45 268 4 gusting 17 2.8
2017-Mar-28 09:35 319 9 gusting 20 2.2
2017-Mar-28 09:25 290 7 gusting 19 2.2
2017-Mar-28 09:15 314 6 gusting 16 2.2
2017-Mar-28 09:05 280 5 gusting 14 2.2
2017-Mar-28 08:55 312 12 gusting 22 2.2
2017-Mar-28 08:45 312 9 gusting 17 2.2
2017-Mar-28 08:35 331 9 gusting 21 2.2
2017-Mar-28 08:25 322 9 gusting 18 2.2
2017-Mar-28 08:14 317 9 gusting 19 2.2
2017-Mar-28 08:04 304 6 gusting 19 1.7
2017-Mar-28 07:54 321 8 gusting 19 1.7
2017-Mar-28 07:44 289 7 gusting 20 1.7
2017-Mar-28 07:34 301 5 gusting 16 1.7
2017-Mar-28 07:24 296 6 gusting 13 1.7
2017-Mar-28 07:14 273 5 gusting 19 1.7
2017-Mar-28 07:04 307 9 gusting 19 1.1
2017-Mar-28 06:54 322 8 gusting 18 1.7
2017-Mar-28 06:44 323 6 gusting 16 1.1
2017-Mar-28 06:34 306 7 gusting 14 1.1
2017-Mar-28 06:24 308 6 gusting 14 1.1
2017-Mar-28 06:14 296 7 gusting 14 1.1
2017-Mar-28 06:04 275 4 gusting 13 1.1
2017-Mar-28 05:54 301 6 gusting 14 1.1
2017-Mar-28 05:44 303 6 gusting 13 0.6
2017-Mar-28 05:34 259 1 gusting 10 0.6
2017-Mar-28 05:24 315 5 gusting 12 0.6
2017-Mar-28 05:14 314 4 gusting 14 0.6
2017-Mar-28 05:03 301 5 gusting 11 0.6
2017-Mar-28 04:53 300 3 gusting 15 0.6
2017-Mar-28 04:43 323 5 gusting 13 0.6
2017-Mar-28 04:33 327 6 gusting 12 0.6
2017-Mar-28 04:23 261 0 gusting 10 0.6
2017-Mar-28 04:13 312 5 gusting 11 0.6
2017-Mar-28 04:03 297 6 gusting 16 0.6
2017-Mar-28 03:53 303 6 gusting 13 1.1
2017-Mar-28 03:43 312 6 gusting 15 1.1
2017-Mar-28 03:33 296 6 gusting 17 1.1
2017-Mar-28 03:23 291 6 gusting 15 1.1
2017-Mar-28 03:13 305 6 gusting 13 1.1
2017-Mar-28 03:03 280 6 gusting 13 1.1
2017-Mar-28 02:53 271 5 gusting 9 1.7
2017-Mar-28 02:43 312 6 gusting 15 1.7
2017-Mar-28 02:33 305 5 gusting 13 1.7
2017-Mar-28 02:23 256 6 gusting 11 1.7
2017-Mar-28 02:13 280 5 gusting 10 2.2
2017-Mar-28 02:03 286 4 gusting 8 2.2
2017-Mar-28 01:53 283 4 gusting 11 2.2
2017-Mar-28 01:43 299 3 gusting 10 2.2
2017-Mar-28 01:33 278 2 gusting 13 2.2
2017-Mar-28 01:23 319 6 gusting 15 2.2
2017-Mar-28 01:12 298 6 gusting 10 2.8
2017-Mar-28 01:02 293 6 gusting 11 2.8
2017-Mar-28 00:52 277 1 gusting 12 2.8
2017-Mar-28 00:42 303 3 gusting 13 2.8
2017-Mar-28 00:32 286 2 gusting 12 2.8
2017-Mar-28 00:22 248 4 gusting 10 2.8
2017-Mar-28 00:12 263 1 gusting 8 2.8
2017-Mar-28 00:02 253 4 gusting 8 3.3
2017-Mar-27 23:52 267 2 gusting 11 3.3
2017-Mar-27 23:42 298 3 gusting 9 3.3
2017-Mar-27 23:32 242 2 gusting 11 3.3
2017-Mar-27 23:22 271 6 gusting 13 3.3
2017-Mar-27 23:12 272 5 gusting 10 3.3
2017-Mar-27 23:02 265 3 gusting 13 3.3
2017-Mar-27 22:52 297 4 gusting 12 3.3
2017-Mar-27 22:42 299 4 gusting 10 3.3
2017-Mar-27 22:32 302 3 gusting 9 3.3
2017-Mar-27 22:22 303 5 gusting 10 3.9
2017-Mar-27 22:12 313 6 gusting 13 3.9
2017-Mar-27 22:02 269 6 gusting 13 3.9